Location: Unspecified
(52.4292°N, 19.3359°E)
Time: 01:04:43
(UTC+02:00)

SR - Pass Details

Date: 29 May 2024
Orbit: 580 x 858 km, 66.7° (Epoch: 12 June)

Event Time Altitude Azimuth Distance (km) Brightness Sun altitude
Rises 00:12:30 0° 321° (NW) 2,912 ? -15.7°
Reaches altitude 10° 00:14:55 10° 329° (NNW) 1,970 ? -15.7°
Maximum altitude 00:19:06 42° 41° (NE) 856 ? -15.8°
Drops below altitude 10° 00:23:08 10° 113° (ESE) 1,899 ? -15.8°
Enters shadow 00:23:32 - 115° (ESE) 2,055 ? -15.8°
Sets 00:25:25 0° 120° (ESE) 2,793 - -15.8°
